Regional Weather Roundup
Issued by NWS State College, PA

Home | Current Version | Previous Version | Text Only | Print | Product List | Glossary Off
Versions: 1 2 3 4 5 6 7 8 9 10 11 12 13 14 15 16 17 18 19 20 21 22 23 24 25 26 27 28 29 30 31 32 33 34 35 36 37 38 39 40 41 42 43 44 45 46 47 48 49 50

000
ASUS41 KCTP 290403
RWRCTP

REGIONAL WEATHER ROUNDUP
NATIONAL WEATHER SERVICE STATE COLLEGE PA
1200 AM EDT SUN MAR 29 2015

Note: "fair" indicates few or no clouds below 12,000 feet with no
significant weather and/or obstructions to visibility.

* = STATION THAT DOES NOT REPORT PRECIPITATION /E.G. RAIN...SNOW...ETC/
    THUNDER OR FOG.

PAZ002>004-007>009-013>016-020>023-029>032-290500-
WESTERN PENNSYLVANIA

CITY           SKY/WX    TMP DP  RH WIND       PRES   REMARKS
ERIE           CLEAR     21  12  68 SW5       30.29R WCI  15
MEADVILLE      CLEAR     17   9  70 W5        30.24S WCI  10
FRANKLIN*      CLEAR     16   5  62 W6        30.24S WCI   7
NEW CASTLE     FAIR      18   9  68 CALM      30.30S
BEAVER COUNTY  NOT AVBL
BUTLER*        CLEAR     16   7  67 CALM      30.28S
PITTSBURGH INT CLEAR     20   6  55 W6        30.28R WCI  12
PITTSBURGH     CLEAR     21   2  43 NW5       30.27R WCI  15
INDIANA*       CLEAR     19   7  58 NW5       30.29R WCI  13
LATROBE        CLEAR     19   5  53 CALM      30.30R
WASHINGTON CO* CLEAR     18   7  62 CALM      30.30S
$$

PAZ004>006-010>012-017>019-024>028-033>037-041-042-045-046-049>053-290500-
CENTRAL PENNSYLVANIA

CITY           SKY/WX    TMP DP  RH WIND       PRES   REMARKS
BRADFORD       CLEAR     15   7  70 W8        30.15R WCI   4
DUBOIS         CLEAR     16   6  65 W7        30.19R WCI   6
CLEARFIELD     CLEAR     18   6  59 W5        30.21R WCI  11
JOHNSTOWN      CLEAR     16   4  59 NW15      30.16R WCI   1
ALTOONA        CLEAR     20   3  48 NW10      30.22R WCI   9
STATE COLLEGE  CLEAR     21   4  47 NW5       30.22R WCI  15
WILLIAMSPORT   CLEAR     21   4  47 W6        30.22R WCI  13
SELINSGROVE    CLEAR     21  11  65 N3        30.23R
FT INDIANTOWN  CLEAR     25  -1  32 N8G17     30.21R
CAPITAL CITY   PTCLDY    28   2  32 N7G21     30.23R
HARRISBURG     CLEAR     27   3  35 N9        30.23R
YORK           CLEAR     27   5  39 NW9       30.21R
$$

PAZ038>040-043-044-047-048-054-055-060>062-067>071-290500-
EASTERN PENNSYLVANIA

CITY           SKY/WX    TMP DP  RH WIND       PRES   REMARKS
SCRANTON       CLOUDY    22   4  46 N7        30.16R WCI  13
MOUNT POCONO   CLOUDY    17   3  54 N20G31    30.04R WCI   1
ALLENTOWN      CLOUDY    25   6  44 N15       30.18R WCI  13
QUAKERTOWN*    CLEAR     23   7  50 N12G23    30.17R WCI  12
READING        CLOUDY    26   3  37 N16       30.20R WCI  14
LANCASTER      CLEAR     25   5  42 N15       30.20R WCI  13
COATESVILLE    PTCLDY    27   7  43 N13G20    30.16R
POTTSTOWN      CLOUDY    25   6  44 N9        30.19R
BLUE BELL      CLEAR     28  10  47 NW7G16    30.16S
DOYLESTOWN     PTCLDY    23   7  50 NW13G21   30.15R WCI  11
WILLOW GROVE   NOT AVBL
NORTH PHILA    MOCLDY    28   5  37 NW10G25   30.18R
PHILADELPHIA   MOCLDY    29   7  39 N16       30.19R
$$


USA.gov is the U.S. government's official web portal to all federal, state and local government web resources and services.